Home   Weather   Viseu   Past weeks

Flag for Portugal Past Weather in Viseu, Portugal — Yesterday and Last 2 Weeks

Now
59 °F

Partly sunny.


Feels Like: 59 °F
Forecast: 39 / 59 °F
Wind: 2 mph from South

Location: Viseu

Current Time: Apr 26, 2017 at 3:04:18 pm

Latest Report: Apr 26, 2017 at 2:00 pm


Visibility: 19 mi

Pressure: 29.80 "Hg

Humidity: 45%

Dew Point: 37 °F

Location of ViseuLocation

Past Weather in Viseu — Graph

°F

Viseu Temperature Yesterday

Maximum temperature yesterday: 61 °F (at 4:00 pm)
Minimum temperature yesterday: 46 °F (at 8:00 am)
Average temperature yesterday: 50 °F

High & Low Weather Summary for the Past Weeks

 TemperatureHumidityPressure
High80 °F (Apr 12, 4:00 pm)100% (Apr 13, 10:00 pm)30.20 "Hg (Apr 13, 10:00 pm)
Low41 °F (Apr 26, 7:00 am)19% (Apr 22, 6:00 pm)29.76 "Hg (Apr 19, 8:00 pm)
Average60 °F59%30.03 "Hg
* Reported Apr 11 12:00 pm — Apr 26 12:00 pm, Viseu, Weather by CustomWeather, © 2017

Note: Actual official high and low records may vary slightly from our data, if they occured in-between our weather recording intervals... More about our weather records

Advertising

Viseu Weather History for the Previous 24 Hours

Scroll right to see more
 ConditionsComfort  
Time TempWeatherWind HumidityBarometerVisibility
12:00 pm
Wed, Apr 26
60 °FPartly sunny.3 mph53%29.83 "Hg12 mi
11:00 am56 °FPartly sunny.3 mph64%29.84 "Hg12 mi
10:00 am50 °FPartly sunny.3 mph78%29.85 "Hg12 mi
9:00 am50 °FCool.2 mph98%29.87 "HgN/A
8:00 am43 °FPartly sunny.3 mph100%29.89 "Hg12 mi
7:00 am41 °FQuite cool.3 mph100%29.88 "HgN/A
6:00 am43 °FQuite cool.2 mph100%29.87 "HgN/A
5:00 am41 °FQuite cool.3 mph100%29.88 "HgN/A
4:00 am42 °FQuite cool.2 mph100%29.88 "HgN/A
3:00 am43 °FQuite cool.5 mph100%29.88 "HgN/A
2:00 am44 °FQuite cool.5 mph100%29.90 "HgN/A
1:00 am44 °FQuite cool.3 mph100%29.92 "HgN/A
12:00 am44 °FQuite cool.2 mph100%29.92 "HgN/A
11:00 pm
Tue, Apr 25
46 °FCool.3 mph100%29.91 "HgN/A
10:00 pm47 °FCool.5 mph98%29.91 "HgN/A
9:00 pm48 °FCool.5 mph93%29.88 "HgN/A
8:00 pm51 °FCool.6 mph88%29.87 "HgN/A
7:00 pm53 °FCool.7 mph79%29.86 "HgN/A
6:00 pm54 °FCool.6 mph76%29.85 "HgN/A
5:00 pm56 °FCool.7 mph69%29.84 "HgN/A
4:00 pm61 °FCool.6 mph61%29.84 "HgN/A
3:00 pm57 °FCool.8 mph74%29.87 "HgN/A
Weather by CustomWeather, © 2017

See weather overviewHow to use our weather pages